QPF
0.01 0.02 0.01 0.01 0.01 0.01 0.02 0.02 0.03 0.03 0.03 0.02 0.02 0.02 0.02 0.02 0.03 0.03 0.04 0.03 0.04 0.04 0.03 0.03 0.03 0.03 0.05 0.06 0.07 0.06 0.05 0.05 0.04 0.03 0.03 0.03 0.03 0.04 0.07 0.06 0.05 0.05 0.03
0.02 0.02 0.02 0.01 0.01 0.02 0.02 0.02 0.03 0.03 0.03 0.03 0.02 0.02 0.02 0.02 0.03 0.02 0.03 0.02 0.03 0.03 0.03 0.03 0.03 0.03 0.04 0.04 0.04 0.04 0.04 0.04 0.04 0.04 0.04 0.03 0.04 0.04 0.07 0.09 0.08 0.07 0.07
0.03 0.02 0.02 0.02 0.03 0.04 0.03 0.02 0.03 0.04 0.03 0.02 0.02 0.02 0.02 0.02 0.02 0.01 0.02 0.02 0.02 0.02 0.03 0.03 0.03 0.03 0.04 0.04 0.04 0.04 0.03 0.03 0.03 0.04 0.04 0.04 0.03 0.04 0.05 0.07 0.09 0.10 0.09
0.03 0.02 0.02 0.02 0.03 0.07 0.08 0.05 0.03 0.03 0.03 0.02 0.01 0.01 0.01 0.01 0.01 0.01 0.01 0.02 0.02 0.02 0.03 0.03 0.03 0.02 0.03 0.03 0.03 0.04 0.03 0.03 0.03 0.03 0.04 0.04 0.04 0.03 0.04 0.05 0.06 0.07 0.08
0.04 0.05 0.06 0.06 0.06 0.08 0.09 0.08 0.05 0.03 0.03 0.03 0.02 0.01 0.01 0.01 0.01 0.01 0.01 0.01 0.02 0.03 0.03 0.03 0.02 0.02 0.02 0.02 0.02 0.03 0.04 0.04 0.03 0.03 0.03 0.03 0.03 0.03 0.03 0.04 0.04 0.04 0.04
0.03 0.03 0.04 0.08 0.09 0.10 0.10 0.09 0.06 0.03 0.04 0.04 0.03 0.02 0.01 0.01 0.01 0.01 0.01 0.02 0.02 0.03 0.03 0.03 0.02 0.02 0.02 0.01 0.01 0.01 0.02 0.03 0.03 0.03 0.04 0.04 0.03 0.03 0.03 0.03 0.03 0.03 0.03
0.03 0.03 0.03 0.04 0.06 0.09 0.09 0.09 0.08 0.05 0.04 0.04 0.03 0.03 0.02 0.01 0.01 0.01 0.01 0.01 0.02 0.02 0.03 0.03 0.03 0.02 0.02 0.01 0.01 0.01 0.01 0.01 0.02 0.04 0.05 0.05 0.05 0.05 0.04 0.03 0.03 0.03 0.03
0.03 0.03 0.03 0.03 0.05 0.09 0.11 0.10 0.09 0.06 0.04 0.04 0.03 0.03 0.02 0.02 0.02 0.01 0.02 0.02 0.02 0.03 0.02 0.03 0.03 0.03 0.02 0.02 0.01 0.01 0.01 0.01 0.01 0.02 0.03 0.05 0.05 0.05 0.04 0.04 0.03 0.03 0.02
0.02 0.03 0.03 0.05 0.05 0.06 0.07 0.06 0.05 0.05 0.05 0.05 0.04 0.03 0.02 0.01 0.02 0.02 0.02 0.02 0.02 0.02 0.02 0.01 0.02 0.02 0.02 0.02 0.02 0.03 0.03 0.03 0.01 0.01 0.02 0.03 0.03 0.03 0.03 0.03 0.03 0.02 0.02
0.04 0.05 0.05 0.07 0.06 0.05 0.04 0.03 0.03 0.03 0.04 0.05 0.04 0.03 0.01 0.01 0.02 0.02 0.02 0.02 0.01 0.01 0.01 0.01 0.01 0.01 0.01 0.01 0.02 0.03 0.04 0.04 0.03 0.02 0.02 0.02 0.02 0.02 0.02 0.02 0.02 0.03 0.03
0.06 0.06 0.07 0.08 0.08 0.07 0.06 0.04 0.03 0.03 0.03 0.03 0.03 0.03 0.02 0.02 0.02 0.02 0.02 0.01 0.01 0.01 0.01 0.01 0.01 0.01 0.00 0.01 0.02 0.04 0.04 0.05 0.05 0.05 0.04 0.03 0.03 0.03 0.02 0.03 0.03 0.03 0.03
0.06 0.06 0.06 0.07 0.08 0.08 0.09 0.06 0.03 0.02 0.02 0.02 0.02 0.03 0.03 0.03 0.03 0.02 0.02 0.01 0.00 0.01 0.01 0.01 0.01 0.01 0.01 0.01 0.02 0.03 0.04 0.05 0.05 0.05 0.06 0.05 0.04 0.04 0.03 0.03 0.04 0.04 0.04
0.05 0.05 0.05 0.05 0.07 0.07 0.08 0.07 0.05 0.04 0.04 0.03 0.03 0.03 0.03 0.03 0.04 0.03 0.02 0.01 0.01 0.01 0.01 0.01 0.02 0.02 0.02 0.02 0.02 0.03 0.05 0.06 0.05 0.05 0.05 0.05 0.06 0.05 0.04 0.04 0.03 0.03 0.04
0.06 0.06 0.06 0.06 0.06 0.06 0.06 0.07 0.06 0.04 0.04 0.04 0.03 0.02 0.02 0.03 0.04 0.03 0.03 0.02 0.01 0.01 0.02 0.02 0.02 0.02 0.02 0.03 0.04 0.04 0.05 0.06 0.06 0.05 0.04 0.04 0.04 0.04 0.04 0.04 0.03 0.03 0.04
0.08 0.07 0.06 0.05 0.05 0.05 0.05 0.06 0.06 0.03 0.03 0.04 0.05 0.04 0.03 0.03 0.03 0.04 0.03 0.03 0.02 0.01 0.01 0.01 0.01 0.01 0.01 0.02 0.03 0.02 0.03 0.03 0.04 0.05 0.04 0.03 0.04 0.05 0.04 0.04 0.04 0.03 0.03
0.07 0.06 0.05 0.05 0.07 0.09 0.07 0.08 0.09 0.07 0.05 0.03 0.04 0.05 0.04 0.03 0.02 0.02 0.02 0.02 0.02 0.02 0.01 0.01 0.01 0.01 0.01 0.01 0.02 0.02 0.02 0.02 0.03 0.04 0.05 0.05 0.05 0.05 0.04 0.04 0.05 0.05 0.04
0.07 0.06 0.05 0.05 0.07 0.12 0.13 0.09 0.10 0.12 0.10 0.08 0.07 0.06 0.04 0.03 0.02 0.01 0.01 0.01 0.02 0.02 0.01 0.01 0.01 0.01 0.01 0.01 0.01 0.01 0.02 0.02 0.03 0.03 0.04 0.04 0.05 0.05 0.05 0.05 0.05 0.05 0.05
0.08 0.09 0.08 0.06 0.07 0.10 0.14 0.12 0.10 0.09 0.08 0.08 0.09 0.08 0.06 0.05 0.03 0.02 0.01 0.01 0.01 0.01 0.02 0.02 0.02 0.01 0.01 0.01 0.01 0.01 0.01 0.01 0.01 0.01 0.02 0.02 0.03 0.04 0.04 0.04 0.04 0.04 0.05
0.06 0.07 0.08 0.08 0.08 0.09 0.13 0.12 0.09 0.08 0.07 0.08 0.08 0.09 0.09 0.07 0.05 0.04 0.02 0.01 0.01 0.01 0.01 0.01 0.02 0.02 0.02 0.02 0.02 0.02 0.02 0.02 0.02 0.02 0.02 0.02 0.02 0.02 0.03 0.03 0.03 0.03 0.03
0.03 0.04 0.06 0.07 0.09 0.08 0.11 0.13 0.09 0.07 0.07 0.06 0.06 0.07 0.06 0.05 0.04 0.03 0.03 0.02 0.02 0.01 0.01 0.01 0.01 0.01 0.02 0.03 0.03 0.02 0.02 0.02 0.02 0.03 0.03 0.03 0.03 0.03 0.04 0.04 0.02 0.03 0.02
0.02 0.01 0.02 0.04 0.06 0.07 0.08 0.12 0.08 0.04 0.04 0.04 0.04 0.04 0.04 0.04 0.03 0.03 0.02 0.02 0.02 0.02 0.02 0.02 0.02 0.01 0.02 0.02 0.03 0.04 0.04 0.04 0.04 0.04 0.04 0.04 0.03 0.04 0.05 0.05 0.03 0.03 0.03
0.01 0.01 0.01 0.01 0.02 0.04 0.05 0.08 0.09 0.05 0.03 0.03 0.02 0.02 0.02 0.02 0.02 0.02 0.02 0.02 0.02 0.03 0.03 0.03 0.03 0.03 0.02 0.02 0.03 0.03 0.04 0.05 0.06 0.05 0.04 0.04 0.03 0.04 0.05 0.05 0.05 0.05 0.05
0.01 0.00 0.00 0.00 0.01 0.03 0.04 0.04 0.05 0.04 0.02 0.02 0.01 0.01 0.01 0.01 0.01 0.01 0.00 0.01 0.01 0.01 0.01 0.01 0.02 0.02 0.02 0.02 0.02 0.02 0.03 0.03 0.04 0.04 0.04 0.04 0.04 0.04 0.04 0.04 0.04 0.04 0.04
0.01 0.01 0.01 0.01 0.01 0.02 0.04 0.03 0.04 0.03 0.01 0.01 0.01 0.01 0.01 0.01 0.01 0.00 0.00 0.00 0.01 0.01 0.01 0.00 0.01 0.01 0.01 0.01 0.01 0.02 0.02 0.02 0.03 0.04 0.04 0.04 0.04 0.03 0.03 0.02 0.02 0.02 0.02
0.01 0.01 0.01 0.01 0.01 0.02 0.03 0.04 0.03 0.03 0.02 0.01 0.01 0.01 0.01 0.01 0.01 0.00 0.00 0.00 0.01 0.01 0.00 0.00 0.00 0.00 0.00 0.01 0.01 0.01 0.01 0.01 0.02 0.02 0.03 0.03 0.03 0.03 0.03 0.03 0.02 0.02 0.02
0.01 0.01 0.01 0.01 0.01 0.01 0.03 0.04 0.04 0.03 0.02 0.01 0.01 0.01 0.01 0.00 0.00 0.00 0.00 0.00 0.01 0.01 0.00 0.00 0.00 0.00 0.00 0.00 0.00 0.00 0.00 0.00 0.01 0.01 0.01 0.01 0.02 0.02 0.03 0.03 0.02 0.02 0.03
MSLP
998.09 998.22 998.49 998.87 999.30 999.76 1000.21 1000.68 1001.17 1001.70 1002.30 1002.98 1003.73 1004.52 1005.32 1006.10 1006.83 1007.48 1008.04 1008.52 1008.93 1009.30 1009.66 1010.02 1010.38 1010.75 1011.12 1011.46 1011.76 1011.99 1012.16 1012.27 1012.33 1012.36 1012.39 1012.43 1012.51 1012.63 1012.80 1013.01 1013.24 1013.48 1013.72
998.51 998.49 998.62 998.85 999.16 999.49 999.83 1000.19 1000.58 1001.02 1001.53 1002.12 1002.80 1003.54 1004.31 1005.08 1005.82 1006.49 1007.08 1007.60 1008.06 1008.48 1008.88 1009.28 1009.68 1010.08 1010.48 1010.85 1011.17 1011.43 1011.63 1011.76 1011.84 1011.88 1011.92 1011.98 1012.07 1012.21 1012.38 1012.60 1012.85 1013.10 1013.35
999.10 998.96 998.97 999.08 999.26 999.47 999.70 999.94 1000.22 1000.55 1000.96 1001.46 1002.05 1002.72 1003.43 1004.17 1004.88 1005.55 1006.17 1006.72 1007.21 1007.67 1008.11 1008.55 1008.98 1009.41 1009.83 1010.22 1010.57 1010.85 1011.06 1011.20 1011.30 1011.36 1011.41 1011.49 1011.60 1011.76 1011.96 1012.20 1012.46 1012.73 1013.00
999.78 999.57 999.49 999.51 999.58 999.68 999.79 999.93 1000.10 1000.32 1000.62 1001.02 1001.51 1002.09 1002.74 1003.41 1004.09 1004.74 1005.35 1005.91 1006.42 1006.91 1007.37 1007.83 1008.29 1008.74 1009.18 1009.58 1009.94 1010.23 1010.45 1010.61 1010.73 1010.81 1010.89 1011.00 1011.14 1011.33 1011.56 1011.83 1012.12 1012.41 1012.68
1000.46 1000.22 1000.09 1000.04 1000.02 1000.04 1000.06 1000.10 1000.17 1000.29 1000.49 1000.79 1001.18 1001.67 1002.23 1002.83 1003.44 1004.05 1004.64 1005.18 1005.70 1006.19 1006.67 1007.14 1007.61 1008.07 1008.52 1008.93 1009.30 1009.60 1009.85 1010.03 1010.18 1010.30 1010.42 1010.56 1010.75 1010.98 1011.25 1011.56 1011.87 1012.18 1012.45
1001.06 1000.82 1000.66 1000.56 1000.49 1000.44 1000.38 1000.34 1000.33 1000.37 1000.47 1000.67 1000.97 1001.36 1001.83 1002.35 1002.90 1003.46 1004.00 1004.52 1005.02 1005.51 1005.99 1006.46 1006.94 1007.41 1007.87 1008.30 1008.69 1009.02 1009.30 1009.52 1009.71 1009.88 1010.06 1010.26 1010.50 1010.77 1011.09 1011.42 1011.75 1012.06 1012.33
1001.53 1001.30 1001.12 1000.99 1000.88 1000.77 1000.65 1000.55 1000.46 1000.42 1000.45 1000.56 1000.77 1001.07 1001.45 1001.90 1002.38 1002.89 1003.39 1003.89 1004.38 1004.86 1005.34 1005.82 1006.32 1006.81 1007.29 1007.75 1008.17 1008.55 1008.87 1009.16 1009.41 1009.64 1009.88 1010.14 1010.43 1010.75 1011.09 1011.44 1011.78 1012.08 1012.32
1001.84 1001.61 1001.42 1001.26 1001.10 1000.94 1000.78 1000.61 1000.46 1000.34 1000.29 1000.33 1000.46 1000.69 1001.00 1001.38 1001.82 1002.28 1002.77 1003.26 1003.75 1004.24 1004.75 1005.26 1005.79 1006.31 1006.84 1007.34 1007.82 1008.26 1008.65 1009.00 1009.32 1009.62 1009.92 1010.24 1010.56 1010.91 1011.27 1011.62 1011.95 1012.22 1012.41
1002.01 1001.77 1001.55 1001.36 1001.16 1000.95 1000.72 1000.49 1000.27 1000.09 999.97 999.93 999.99 1000.16 1000.42 1000.76 1001.17 1001.63 1002.13 1002.64 1003.17 1003.71 1004.26 1004.83 1005.41 1006.00 1006.59 1007.16 1007.70 1008.21 1008.67 1009.10 1009.48 1009.84 1010.19 1010.53 1010.88 1011.23 1011.58 1011.90 1012.19 1012.42 1012.57
1002.12 1001.84 1001.59 1001.35 1001.10 1000.83 1000.54 1000.25 999.95 999.70 999.51 999.40 999.40 999.51 999.74 1000.07 1000.49 1000.98 1001.51 1002.09 1002.69 1003.31 1003.95 1004.60 1005.26 1005.93 1006.59 1007.23 1007.84 1008.42 1008.94 1009.42 1009.86 1010.25 1010.62 1010.97 1011.30 1011.62 1011.93 1012.21 1012.45 1012.62 1012.72
1002.23 1001.92 1001.63 1001.34 1001.03 1000.70 1000.34 999.97 999.60 999.27 999.01 998.83 998.78 998.86 999.08 999.42 999.87 1000.41 1001.02 1001.69 1002.39 1003.12 1003.86 1004.61 1005.36 1006.11 1006.84 1007.55 1008.22 1008.84 1009.41 1009.92 1010.37 1010.77 1011.13 1011.44 1011.73 1012.00 1012.25 1012.46 1012.63 1012.75 1012.80
1002.43 1002.09 1001.76 1001.42 1001.07 1000.67 1000.25 999.80 999.36 998.96 998.62 998.39 998.30 998.36 998.57 998.94 999.44 1000.06 1000.76 1001.53 1002.35 1003.19 1004.03 1004.88 1005.72 1006.54 1007.33 1008.08 1008.78 1009.42 1009.99 1010.50 1010.93 1011.30 1011.61 1011.87 1012.09 1012.28 1012.44 1012.58 1012.68 1012.74 1012.75
1002.77 1002.42 1002.07 1001.70 1001.30 1000.86 1000.38 999.87 999.36 998.90 998.51 998.23 998.11 998.15 998.38 998.78 999.33 1000.02 1000.82 1001.69 1002.61 1003.54 1004.48 1005.40 1006.29 1007.15 1007.96 1008.72 1009.41 1010.03 1010.58 1011.04 1011.43 1011.74 1011.98 1012.16 1012.29 1012.40 1012.48 1012.54 1012.58 1012.59 1012.58
1003.27 1002.92 1002.57 1002.19 1001.77 1001.30 1000.79 1000.24 999.69 999.19 998.76 998.46 998.32 998.36 998.60 999.03 999.63 1000.38 1001.25 1002.19 1003.17 1004.16 1005.15 1006.10 1007.00 1007.85 1008.65 1009.37 1010.02 1010.58 1011.07 1011.47 1011.79 1012.02 1012.18 1012.28 1012.33 1012.35 1012.35 1012.35 1012.34 1012.32 1012.29
1003.89 1003.57 1003.24 1002.87 1002.46 1001.99 1001.47 1000.92 1000.37 999.85 999.42 999.12 998.98 999.03 999.29 999.74 1000.36 1001.14 1002.03 1003.00 1004.00 1004.99 1005.97 1006.89 1007.76 1008.56 1009.28 1009.93 1010.51 1011.00 1011.40 1011.73 1011.97 1012.13 1012.22 1012.24 1012.23 1012.18 1012.13 1012.07 1012.03 1011.99 1011.96
1004.54 1004.27 1003.97 1003.65 1003.27 1002.83 1002.35 1001.83 1001.32 1000.84 1000.44 1000.16 1000.05 1000.12 1000.39 1000.84 1001.47 1002.24 1003.11 1004.04 1005.00 1005.94 1006.84 1007.69 1008.47 1009.17 1009.80 1010.35 1010.83 1011.24 1011.56 1011.82 1012.00 1012.10 1012.14 1012.12 1012.06 1011.98 1011.89 1011.80 1011.73 1011.69 1011.65
1005.14 1004.92 1004.68 1004.40 1004.08 1003.71 1003.30 1002.86 1002.42 1002.01 1001.68 1001.47 1001.40 1001.50 1001.77 1002.22 1002.82 1003.54 1004.35 1005.20 1006.06 1006.90 1007.69 1008.42 1009.07 1009.66 1010.17 1010.62 1011.00 1011.33 1011.59 1011.80 1011.94 1012.01 1012.03 1012.00 1011.92 1011.83 1011.72 1011.62 1011.54 1011.48 1011.44
1005.60 1005.43 1005.25 1005.04 1004.80 1004.52 1004.21 1003.87 1003.54 1003.25 1003.01 1002.88 1002.87 1003.01 1003.30 1003.72 1004.27 1004.92 1005.63 1006.36 1007.09 1007.79 1008.44 1009.02 1009.54 1010.00 1010.40 1010.76 1011.07 1011.33 1011.56 1011.74 1011.87 1011.95 1011.97 1011.95 1011.89 1011.80 1011.69 1011.58 1011.49 1011.41 1011.36
1005.90 1005.78 1005.65 1005.51 1005.36 1005.18 1004.98 1004.78 1004.58 1004.41 1004.30 1004.26 1004.33 1004.51 1004.80 1005.20 1005.68 1006.24 1006.83 1007.43 1008.01 1008.56 1009.05 1009.50 1009.89 1010.24 1010.55 1010.83 1011.09 1011.33 1011.54 1011.72 1011.87 1011.97 1012.03 1012.03 1011.99 1011.91 1011.81 1011.70 1011.59 1011.48 1011.39
1006.06 1005.97 1005.90 1005.83 1005.76 1005.68 1005.61 1005.53 1005.47 1005.44 1005.44 1005.51 1005.64 1005.86 1006.15 1006.52 1006.93 1007.39 1007.86 1008.32 1008.76 1009.17 1009.53 1009.86 1010.15 1010.41 1010.66 1010.90 1011.14 1011.37 1011.59 1011.80 1011.98 1012.12 1012.20 1012.24 1012.22 1012.16 1012.06 1011.93 1011.79 1011.65 1011.51
1006.16 1006.10 1006.06 1006.04 1006.05 1006.06 1006.09 1006.14 1006.20 1006.28 1006.40 1006.55 1006.74 1006.99 1007.27 1007.60 1007.94 1008.31 1008.67 1009.01 1009.33 1009.62 1009.89 1010.12 1010.35 1010.56 1010.78 1011.01 1011.25 1011.50 1011.74 1011.98 1012.19 1012.36 1012.47 1012.53 1012.53 1012.47 1012.36 1012.21 1012.03 1011.84 1011.65
1006.28 1006.24 1006.22 1006.25 1006.31 1006.39 1006.50 1006.64 1006.79 1006.96 1007.15 1007.36 1007.59 1007.85 1008.12 1008.40 1008.68 1008.96 1009.23 1009.49 1009.72 1009.93 1010.13 1010.32 1010.51 1010.71 1010.93 1011.17 1011.43 1011.70 1011.97 1012.23 1012.46 1012.64 1012.77 1012.84 1012.84 1012.77 1012.64 1012.46 1012.24 1012.00 1011.75
1006.52 1006.48 1006.48 1006.52 1006.61 1006.74 1006.89 1007.07 1007.27 1007.49 1007.72 1007.95 1008.19 1008.43 1008.67 1008.91 1009.14 1009.36 1009.56 1009.75 1009.93 1010.10 1010.28 1010.46 1010.65 1010.87 1011.10 1011.37 1011.65 1011.94 1012.22 1012.49 1012.73 1012.91 1013.03 1013.09 1013.06 1012.98 1012.82 1012.61 1012.36 1012.08 1011.78
1006.89 1006.85 1006.86 1006.91 1007.00 1007.13 1007.29 1007.48 1007.68 1007.90 1008.12 1008.35 1008.56 1008.78 1008.98 1009.17 1009.35 1009.52 1009.68 1009.84 1010.00 1010.17 1010.35 1010.54 1010.76 1011.01 1011.28 1011.57 1011.87 1012.17 1012.46 1012.72 1012.94 1013.10 1013.20 1013.23 1013.18 1013.06 1012.88 1012.65 1012.38 1012.07 1011.74
1007.38 1007.34 1007.34 1007.38 1007.45 1007.56 1007.69 1007.85 1008.03 1008.21 1008.39 1008.57 1008.75 1008.91 1009.07 1009.22 1009.36 1009.50 1009.65 1009.80 1009.97 1010.15 1010.36 1010.59 1010.85 1011.13 1011.44 1011.75 1012.07 1012.37 1012.64 1012.88 1013.07 1013.20 1013.26 1013.26 1013.18 1013.04 1012.84 1012.60 1012.32 1012.00 1011.66
1007.92 1007.88 1007.86 1007.88 1007.92 1007.98 1008.07 1008.17 1008.29 1008.41 1008.54 1008.66 1008.78 1008.90 1009.02 1009.13 1009.25 1009.38 1009.53 1009.69 1009.88 1010.10 1010.34 1010.62 1010.92 1011.23 1011.56 1011.89 1012.21 1012.50 1012.76 1012.97 1013.12 1013.21 1013.24 1013.20 1013.10 1012.95 1012.74 1012.50 1012.22 1011.92 1011.59
Thickness
5722 5721 5718 5717 5715 5713 5710 5709 5706 5704 5702 5701 5700 5698 5696 5695 5694 5692 5692 5691 5690 5689 5689 5688 5687 5688 5688 5690 5690 5690 5689 5688 5685 5689 5691 5690 5687 5685 5685 5684 5684 5684 5683
5717 5715 5713 5711 5710 5708 5706 5704 5702 5700 5699 5697 5695 5694 5692 5690 5689 5687 5686 5686 5685 5684 5683 5683 5682 5682 5681 5682 5682 5683 5683 5683 5681 5681 5683 5683 5681 5680 5680 5678 5680 5681 5681
5711 5709 5707 5705 5704 5702 5701 5699 5697 5696 5694 5693 5691 5689 5687 5685 5684 5683 5682 5681 5680 5679 5678 5677 5677 5676 5675 5676 5675 5676 5677 5678 5677 5676 5677 5678 5677 5676 5674 5674 5675 5675 5676
5705 5703 5701 5700 5698 5697 5696 5694 5692 5691 5689 5687 5686 5684 5682 5681 5679 5678 5677 5676 5674 5674 5673 5672 5672 5671 5670 5670 5670 5670 5671 5671 5671 5671 5672 5672 5671 5671 5669 5669 5669 5670 5671
5697 5697 5695 5694 5693 5691 5690 5689 5687 5686 5685 5682 5680 5679 5677 5676 5674 5672 5671 5670 5669 5668 5667 5667 5666 5665 5663 5663 5664 5664 5664 5665 5665 5665 5665 5666 5665 5664 5664 5665 5665 5666 5667
5691 5690 5690 5689 5688 5686 5684 5683 5681 5680 5678 5677 5675 5673 5671 5670 5665 5662 5663 5664 5663 5662 5661 5660 5660 5658 5656 5654 5654 5654 5655 5657 5658 5658 5659 5658 5658 5660 5660 5661 5660 5660 5661
5685 5685 5684 5683 5682 5680 5679 5677 5675 5673 5671 5670 5668 5667 5664 5661 5657 5655 5654 5656 5656 5655 5654 5653 5654 5654 5651 5651 5648 5647 5647 5647 5647 5649 5651 5652 5653 5654 5653 5654 5654 5654 5655
5679 5679 5679 5677 5676 5674 5673 5670 5668 5666 5665 5663 5662 5660 5658 5654 5650 5648 5647 5649 5650 5649 5648 5647 5646 5646 5646 5644 5644 5643 5643 5643 5642 5642 5644 5645 5646 5646 5646 5646 5646 5647 5649
5673 5673 5672 5671 5669 5668 5666 5664 5662 5660 5658 5657 5656 5654 5652 5649 5644 5642 5640 5643 5644 5644 5643 5642 5641 5639 5636 5635 5636 5637 5637 5637 5636 5635 5635 5635 5635 5636 5636 5638 5639 5640 5642
5667 5666 5665 5664 5663 5661 5659 5658 5656 5655 5654 5652 5651 5649 5647 5644 5638 5636 5634 5640 5639 5639 5638 5637 5633 5632 5629 5628 5630 5631 5630 5631 5632 5631 5629 5629 5630 5631 5630 5630 5634 5634 5636
5660 5659 5658 5656 5655 5655 5653 5652 5651 5650 5648 5646 5645 5643 5641 5638 5634 5631 5630 5633 5635 5635 5635 5633 5631 5625 5623 5622 5622 5624 5624 5623 5625 5625 5626 5627 5628 5628 5628 5628 5628 5629 5630
5652 5651 5649 5648 5648 5648 5646 5646 5645 5644 5642 5640 5639 5638 5637 5634 5630 5627 5625 5624 5625 5628 5628 5628 5625 5619 5617 5616 5617 5617 5615 5614 5618 5620 5621 5622 5624 5624 5624 5624 5622 5622 5623
5642 5641 5640 5640 5640 5640 5639 5639 5639 5638 5637 5636 5635 5635 5634 5632 5627 5622 5619 5618 5618 5620 5622 5618 5615 5613 5612 5612 5611 5610 5610 5613 5614 5614 5615 5616 5617 5618 5617 5616 5616 5615 5616
5633 5632 5633 5632 5632 5632 5632 5634 5633 5632 5631 5630 5629 5628 5628 5626 5623 5619 5617 5616 5613 5614 5614 5612 5609 5608 5608 5608 5608 5608 5609 5609 5609 5610 5610 5611 5611 5611 5610 5610 5610 5611 5611
5625 5625 5626 5627 5627 5625 5625 5624 5625 5623 5621 5620 5621 5621 5620 5618 5613 5608 5609 5610 5610 5609 5607 5608 5608 5608 5608 5608 5608 5607 5606 5604 5603 5604 5604 5604 5604 5605 5605 5605 5604 5604 5605
5617 5618 5620 5620 5620 5620 5619 5618 5614 5613 5610 5608 5607 5607 5610 5606 5602 5601 5600 5599 5598 5597 5599 5604 5605 5605 5604 5604 5604 5603 5602 5600 5599 5599 5599 5599 5600 5599 5600 5600 5599 5599 5599
5608 5610 5612 5613 5614 5613 5614 5613 5611 5607 5603 5601 5600 5599 5598 5596 5595 5593 5593 5591 5591 5590 5595 5600 5600 5600 5600 5599 5599 5598 5597 5596 5594 5593 5593 5593 5594 5594 5594 5594 5594 5594 5594
5602 5602 5603 5605 5606 5607 5606 5607 5606 5606 5604 5602 5596 5593 5592 5590 5589 5587 5586 5586 5590 5589 5593 5595 5595 5595 5594 5593 5593 5593 5591 5590 5589 5589 5588 5588 5588 5589 5589 5589 5589 5588 5589
5595 5597 5597 5598 5599 5600 5600 5601 5601 5600 5599 5597 5595 5591 5587 5586 5583 5582 5581 5586 5589 5589 5589 5589 5589 5588 5588 5587 5586 5585 5585 5584 5584 5583 5582 5582 5583 5583 5584 5585 5584 5582 5582
5588 5586 5587 5590 5593 5593 5594 5594 5594 5594 5593 5591 5589 5587 5585 5584 5584 5582 5581 5582 5583 5584 5583 5583 5582 5581 5581 5580 5579 5579 5579 5577 5576 5576 5576 5576 5577 5577 5578 5578 5578 5578 5578
5584 5584 5580 5584 5587 5587 5587 5587 5586 5586 5586 5585 5584 5581 5575 5579 5580 5579 5579 5578 5578 5577 5577 5576 5576 5576 5575 5574 5573 5572 5571 5570 5568 5568 5567 5567 5568 5569 5570 5571 5571 5571 5572
5579 5580 5581 5581 5580 5580 5580 5580 5579 5579 5579 5579 5579 5578 5570 5574 5576 5575 5575 5574 5573 5572 5571 5570 5570 5569 5568 5567 5566 5564 5563 5562 5561 5560 5560 5560 5560 5561 5562 5563 5564 5565 5565
5571 5573 5573 5574 5574 5571 5572 5574 5574 5573 5573 5573 5573 5572 5571 5571 5571 5570 5569 5569 5568 5566 5566 5565 5564 5563 5562 5560 5558 5557 5556 5555 5553 5552 5552 5553 5553 5553 5554 5556 5557 5558 5559
5565 5565 5566 5567 5567 5567 5567 5567 5568 5568 5567 5567 5567 5566 5566 5565 5565 5564 5564 5563 5562 5561 5560 5559 5558 5557 5555 5554 5552 5551 5549 5546 5545 5545 5545 5546 5547 5548 5549 5550 5552 5553 5554
5558 5558 5558 5558 5558 5559 5560 5560 5560 5560 5560 5560 5559 5559 5559 5559 5558 5558 5557 5557 5555 5555 5554 5553 5552 5551 5549 5548 5546 5544 5541 5538 5537 5537 5538 5539 5541 5542 5544 5545 5546 5548 5549
5553 5552 5552 5552 5551 5552 5552 5552 5552 5552 5553 5553 5553 5553 5552 5552 5552 5551 5550 5549 5548 5548 5547 5546 5545 5544 5542 5541 5538 5535 5532 5531 5530 5529 5529 5533 5535 5537 5537 5539 5541 5542 5544